Current Version              Previous Version:    01  02  03  04  05  06  07  08  09  10  11  12  13  14  15  16  17  18  19  20  21  22  23  24  25  26  27  28  29  30  
   31  32  33  34  35  36  37  38  39  40  41  42  43  44  45  46  47  48  49  50  51  52  53  54  55  56  57  58  59  60  

[Printable]
920
ASUS44 KFWD 250610
RWRTX
NORTH TEXAS HOURLY WEATHER ROUNDUP
NATIONAL WEATHER SERVICE FORT WORTH TX
1200 AM CST SUN JAN 25 2015

NOTE: "FAIR" INDICATES FEW OR NO CLOUDS BELOW 12,000 FEET WITH NO
SIGNIFICANT WEATHER AND/OR OBSTRUCTIONS TO VISIBILITY.

TXZ118-119-250700-
DALLAS/FORT WORTH METROPLEX

CITY           SKY/WX    TMP DP  RH WIND       PRES   REMARKS
DFW AIRPORT    PTCLDY    44  35  70 SW9       29.99S WCI  39
6HR MIN TEMP:  42; 6HR MAX TEMP:  54;

DALLAS LOVE    PTCLDY    48  35  60 SW5       30.00S
6HR MIN TEMP:  47; 6HR MAX TEMP:  57;

FTW MEACHAM    CLEAR     48  35  60 SW3       29.99S
6HR MIN TEMP:  45; 6HR MAX TEMP:  55;

DAL-EXECUTIVE  CLEAR     51  34  52 SW9       29.98S
6HR MIN TEMP:  46; 6HR MAX TEMP:  55;

FTW-ALLIANCE   PTCLDY    42  35  76 SW7       29.98S WCI  38
6HR MIN TEMP:  42; 6HR MAX TEMP:  55;

FTW-SPINKS     PTCLDY    41  34  76 CALM      30.00F
6HR MIN TEMP:  39; 6HR MAX TEMP:  54;

ARLINGTON      PTCLDY    47  34  60 SW6       30.00S
6HR MIN TEMP:  45; 6HR MAX TEMP:  57;

GRAND PRAIRIE  CLEAR     45  37  73 CALM      30.01F
6HR MIN TEMP:  43; 6HR MAX TEMP:  57;

ADDISON        CLEAR     48  36  63 SW3       30.00S
6HR MIN TEMP:  48; 6HR MAX TEMP:  57;

MESQUITE       CLEAR     39  33  80 S6        29.99F WCI  34
6HR MIN TEMP:  39; 6HR MAX TEMP:  54;

LANCASTER      PTCLDY    45  32  61 SW3       30.01S
6HR MIN TEMP:  43; 6HR MAX TEMP:  55;

$$

TXZ091>094-102>105-117-120-121-131>134-250700-
NORTH CENTRAL TEXAS

CITY           SKY/WX    TMP DP  RH WIND       PRES   REMARKS
SHRMAN/DENISON CLEAR     43  38  84 SW10      29.97F WCI  37
6HR MIN TEMP:  42; 6HR MAX TEMP:  53;

GAINESVILLE    PTCLDY    40  34  77 S3        29.97F
6HR MIN TEMP:  37; 6HR MAX TEMP:  54;

BOWIE          CLEAR     41  35  79 SW3       29.96F
6HR MIN TEMP:  41; 6HR MAX TEMP:  54;

BRIDGEPORT     CLEAR     42  36  80 SW5       30.00S WCI  39
6HR MIN TEMP:  42; 6HR MAX TEMP:  56;

DECATUR        CLEAR     46  35  65 SW8       29.97F
6HR MIN TEMP:  46; 6HR MAX TEMP:  54;

DENTON         CLEAR     42  35  76 SW6       29.98S WCI  38
6HR MIN TEMP:  40; 6HR MAX TEMP:  55;

MCKINNEY       CLEAR     44  35  70 SW6       29.98F
6HR MIN TEMP:  39; 6HR MAX TEMP:  54;

GREENVILLE     CLEAR     46  34  61 SW6       29.98F
ROCKWALL       CLEAR     46  36  70 SW8       29.97F
6HR MIN TEMP:  46; 6HR MAX TEMP:  55;

TERRELL        CLEAR     42  34  73 S3        30.00F
6HR MIN TEMP:  42; 6HR MAX TEMP:  54;

WAXAHACHIE     PTCLDY    45  36  70 SW7       30.01S
6HR MIN TEMP:  42; 6HR MAX TEMP:  54;

CLEBURNE       CLEAR     45  36  70 SW3       30.01F
GRANBURY       CLEAR     39  35  84 CALM      30.02S
6HR MIN TEMP:  38; 6HR MAX TEMP:  56;

$$

TXZ083>090-098>101-113>116-127>130-139>142-154-155-250700-
WESTERN NORTH TEXAS

CITY           SKY/WX    TMP DP  RH WIND       PRES   REMARKS
WICHITA FALLS  PTCLDY    45  36  70 SW13      29.93F WCI  39
6HR MIN TEMP:  45; 6HR MAX TEMP:  54;

WF-KICKAPOO    PTCLDY   N/A N/A N/A SW9       29.96F
VERNON         MOCLDY    39  31  71 SW8       29.96S WCI  34
6HR MIN TEMP:  31; 6HR MAX TEMP:  67;

ABILENE        PTCLDY    42  35  76 S8        30.03S WCI  37
6HR MIN TEMP:  42; 6HR MAX TEMP:  55;

ABILENE-DYESS  PTCLDY    41  33  73 CALM      30.02F
6HR MIN TEMP:  37; 6HR MAX TEMP:  52;

BRECKENRIDGE   CLEAR     47  35  62 SW9       30.01R
6HR MIN TEMP:  46; 6HR MAX TEMP:  55;

GRAHAM         CLEAR     41  36  81 S5        29.98S WCI  38
6HR MIN TEMP:  41; 6HR MAX TEMP:  54;

MINERAL WELLS  CLEAR     40  34  79 CALM      29.99S
6HR MIN TEMP:  38; 6HR MAX TEMP:  53;

STEPHENVILLE   PTCLDY    44  35  70 CALM      30.03S
6HR MIN TEMP:  42; 6HR MAX TEMP:  56;

COMANCHE       PTCLDY    50  39  65 SW12      30.02R
6HR MIN TEMP:  48; 6HR MAX TEMP:  56;

BROWNWOOD      MOCLDY    45  37  76 S3        30.04R
COLEMAN        PTCLDY    46  39  78 W5        30.04R
6HR MIN TEMP:  45; 6HR MAX TEMP:  55;

BRADY          CLEAR     43  36  75 SW3       30.04F
$$

TXZ143>147-156>162-174-175-250700-
CENTRAL TEXAS

CITY           SKY/WX    TMP DP  RH WIND       PRES   REMARKS
WACO           PTCLDY    39  36  89 SW6       30.02F WCI  35
6HR MIN TEMP:  39; 6HR MAX TEMP:  51;

WACO-MCGREGOR  PTCLDY    43  34  70 SW6       30.03F WCI  39
6HR MIN TEMP:  43; 6HR MAX TEMP:  55;

HILLSBORO      PTCLDY    42  34  73 CALM      30.01S
6HR MIN TEMP:  38; 6HR MAX TEMP:  53;

CORSICANA      PTCLDY    43  37  79 SW8       30.01F WCI  38
6HR MIN TEMP:  43; 6HR MAX TEMP:  55;

MEXIA          PTCLDY    45  37  74 SW7       30.01F
6HR MIN TEMP:  45; 6HR MAX TEMP:  52;

HEARNE         PTCLDY    42  36  79 SE5       30.07F WCI  39
6HR MIN TEMP:  42; 6HR MAX TEMP:  54;

CAMERON        PTCLDY    49  38  66 SW8       30.05F
6HR MIN TEMP:  49; 6HR MAX TEMP:  54;

TEMPLE         MOCLDY    43  34  70 MISG        N/A
6HR MIN TEMP:  43; 6HR MAX TEMP:  55;

KILLEEN        MOCLDY    49  36  61 S6        30.03F
6HR MIN TEMP:  47; 6HR MAX TEMP:  56;

KILLEEN-SKYLRK MOCLDY    48  34  57 SW6       30.02F
6HR MIN TEMP:  48; 6HR MAX TEMP:  57;

FORT HOOD      MOCLDY    47  36  66 MISG      30.02F
6HR MIN TEMP:  46; 6HR MAX TEMP:  58;

GATESVILLE     PTCLDY    46  36  66 CALM      30.05F
HAMILTON       PTCLDY    44  36  73 MISG      30.02F
6HR MIN TEMP:  44; 6HR MAX TEMP:  53;

LAMPASAS       MOCLDY    44  36  75 SW3       30.03F
6HR MIN TEMP:  44; 6HR MAX TEMP:  55;

$$

TXZ095>097-106>112-122>126-135>138-148>153-164>167-250700-
EAST TEXAS

CITY           SKY/WX    TMP DP  RH WIND       PRES   REMARKS
PARIS          CLEAR     43  34  70 CALM      29.98R
6HR MIN TEMP:  41; 6HR MAX TEMP:  52;

SULPHUR SPRNGS CLEAR     45  35  67 SW9       29.99F
6HR MIN TEMP:  44; 6HR MAX TEMP:  54;

MOUNT PLEASANT CLEAR     44  34  68 CALM      30.01S
6HR MIN TEMP:  42; 6HR MAX TEMP:  54;

GILMER         CLEAR     44  34  68 S3        29.99F
6HR MIN TEMP:  42; 6HR MAX TEMP:  54;

MINEOLA        CLEAR     48  34  57 SW3       30.01S
TYLER          PTCLDY    44  36  73 SW8       29.99F WCI  39
6HR MIN TEMP:  44; 6HR MAX TEMP:  52;

LONGVIEW       CLEAR     40  34  79 SW6       30.00S WCI  36
6HR MIN TEMP:  39; 6HR MAX TEMP:  53;

MARSHALL       CLEAR     39  36  88 CALM      30.03S
6HR MIN TEMP:  38; 6HR MAX TEMP:  56;

ATHENS         PTCLDY    46  36  66 CALM      30.00F
PALESTINE      PTCLDY    44  37  76 S3        30.04S
HENDERSON      PTCLDY    41  35  79 CALM      30.02F
6HR MIN TEMP:  38; 6HR MAX TEMP:  51;

NACOGDOCHES    MOCLDY    45  34  65 W3        30.03F
6HR MIN TEMP:  43; 6HR MAX TEMP:  54;

LUFKIN         MOCLDY    44  35  70 S3        30.05F
6HR MIN TEMP:  43; 6HR MAX TEMP:  53;

$$

SUPPLEMENTAL OBSERVATIONS (CENTRAL)

CITY           SKY/WX    TMP DP  RH WIND       PRES   REMARKS
CADDO GRASSLND   N/A     46  36  66 SW6         N/A
PAT MAYSE LAKE   N/A     46  37  71 S6          N/A
GREENVILLE       N/A     46  36  66 SW9         N/A
CEDAR HILL       N/A     46  34  61 S5          N/A
PALESTINE        N/A     45  36  70 CALM        N/A
MCGREGOR         N/A     43  37  81 SW2         N/A
TEMPLE           N/A     45  37  76 CALM        N/A
$$

SUPPLEMENTAL OBSERVATIONS (WEST)